Location: Caltech
(34.1382°N, 118.1253°W)
Time: 17:51:11
(UTC-07:00)

Oscar 11 - Visible Passes

Search period start: 20 August 2017 00:00
Search period end: 30 August 2017 00:00
Orbit: 614 x 626 km, 97.7° (Epoch: 20 August)

Date Brightness Start Highest point End Pass type
(mag) Time Alt. Az. Time Alt. Az. Time Alt. Az.
20 Aug 7.2 20:38:20 15° SSE 20:41:43 55° ENE 20:45:56 10° N visible
21 Aug 7.0 20:55:55 19° SSE 20:58:57 89° WSW 21:03:18 10° NNW visible
22 Aug 7.7 21:13:30 20° S 21:16:16 54° W 21:20:29 10° NNW visible
23 Aug 8.7 19:54:55 10° ESE 19:57:45 17° ENE 20:00:35 10° NNE visible
23 Aug 8.6 21:31:05 18° SSW 21:33:35 33° W 21:37:29 10° NNW visible
24 Aug 8.1 20:11:30 11° SE 20:14:54 27° ENE 20:18:32 10° NNE visible
24 Aug 9.3 21:48:40 14° SW 21:50:58 21° W 21:54:13 10° NW visible
25 Aug 7.5 20:29:05 17° SE 20:32:05 42° ENE 20:36:10 10° N visible
25 Aug 9.8 22:06:25 10° WSW 22:08:22 13° W 22:10:21 10° WNW visible
26 Aug 7.0 20:46:41 23° SSE 20:49:19 70° ENE 20:53:37 10° N visible
27 Aug 7.2 21:04:16 27° S 21:06:34 71° WSW 21:10:54 10° NNW visible
28 Aug 8.9 19:46:00 10° E 19:48:10 14° ENE 19:50:22 10° NE visible
28 Aug 8.1 21:21:52 25° SSW 21:23:53 42° W 21:28:00 10° NNW visible
29 Aug 8.4 20:02:17 11° ESE 20:05:18 21° ENE 20:08:34 10° NNE visible
29 Aug 8.9 21:39:28 20° SW 21:41:14 26° W 21:44:54 10° NW visible
